Location: Lavardac
(44.1778°N, 0.2983°E)
Time: 04:31:48
(UTC+00:00)

Thor Agena Rocket - Pass Details

Date: 06 June 2020
Orbit: 759 x 808 km, 99.0° (Epoch: 14 July)

Event Time Altitude Azimuth Distance (km) Brightness Sun altitude
Rises 22:40:14 0° 14° (NNE) 3,331 7.7 -20.7°
Reaches altitude 10° 22:42:36 10° 15° (NNE) 2,392 6.8 -20.9°
Maximum altitude 22:47:54 85° 105° (ESE) 807 3.5 -21.2°
Enters shadow 22:49:41 43° 190° (S) 1,108 3.9 -21.3°
